Wind_Speed
60 59 57 57 59 60 60 60 60 58 56 55 53 52 50 49 50 52 52 52 51 49 49 49 49 50 49 49 49 48 48 48 47 46 45 44 43 42 41 41 43 45 46 48 49 49 47 46 46 46 46 46 46 48 50 51 53 55 57 58 59 60 60 61 62 64 65 66 67 68 69 70 71 71 72 72 72 73 74 74 74 74 74 76 77 79 80 81
59 59 58 57 58 60 61 61 61 60 59 58 56 55 53 51 50 52 53 53 53 53 52 51 50 51 51 51 51 51 50 50 49 49 49 47 47 47 46 46 45 45 45 45 46 46 47 47 47 48 49 50 52 54 55 56 58 60 62 63 63 63 63 65 66 67 68 68 69 69 70 71 72 72 72 72 72 72 73 74 74 75 76 77 79 80 80 81
57 59 59 58 58 59 60 61 62 62 61 60 59 58 57 55 52 52 53 54 53 54 54 55 54 54 53 53 54 53 52 52 51 51 51 50 50 50 51 52 52 52 51 50 49 49 50 51 52 53 54 55 57 58 59 61 62 63 64 64 65 64 64 65 66 67 67 68 69 70 70 71 72 72 72 72 72 72 73 75 76 77 77 78 79 79 79 79
53 58 60 60 59 59 59 61 62 63 63 62 61 60 59 58 57 54 54 54 54 54 54 55 55 56 56 56 57 56 55 55 54 53 53 52 52 52 52 54 54 55 55 54 53 53 53 55 56 56 57 57 58 59 60 61 61 62 63 63 64 64 65 65 66 67 68 69 70 70 71 71 72 72 72 73 73 73 75 76 77 78 78 78 78 78 78 78
46 53 58 61 60 60 60 60 62 64 65 65 64 63 62 61 60 59 57 55 55 55 56 56 55 56 56 58 59 59 59 59 58 57 56 55 55 54 54 54 54 55 56 56 56 55 55 55 56 57 57 57 57 58 59 60 60 61 62 64 65 66 67 67 68 68 69 70 71 71 71 71 72 73 73 74 74 75 76 77 78 78 78 77 76 76 77 78
40 47 54 59 62 62 61 61 62 63 65 66 67 66 64 63 62 61 61 59 58 57 57 58 58 57 57 57 58 59 60 60 60 60 60 59 59 59 58 58 58 57 57 57 57 57 57 58 58 59 59 60 61 62 63 64 64 64 66 67 68 69 69 70 70 70 70 71 72 72 72 73 73 74 75 76 76 76 77 77 77 77 77 76 75 75 76 78
35 42 48 55 60 63 64 63 63 63 64 66 68 68 68 66 65 64 63 63 62 61 60 59 59 59 59 58 57 58 59 58 60 61 61 61 62 61 62 62 62 62 62 62 62 62 61 61 61 62 63 64 65 66 66 67 68 68 68 69 69 70 70 71 71 71 71 72 72 73 73 74 75 76 77 78 78 78 77 76 75 75 74 74 74 74 75 77
31 36 42 49 55 61 65 66 66 65 65 66 67 69 70 69 68 67 65 64 64 65 64 62 62 61 61 60 59 59 59 59 59 60 60 61 61 61 61 61 62 62 63 63 64 64 64 64 64 64 64 65 65 66 67 67 68 69 69 70 70 71 71 72 72 72 72 73 73 74 75 76 77 77 78 78 78 77 76 75 74 73 74 75 75 75 75 76
27 31 36 42 48 55 61 66 68 69 68 68 68 68 69 71 71 70 68 67 66 66 67 66 65 65 63 62 62 61 62 62 61 61 61 61 61 60 60 61 61 61 62 63 63 64 64 65 65 65 65 65 66 66 67 67 68 69 69 70 71 71 72 73 73 74 74 74 75 76 77 77 78 78 77 77 76 75 74 74 73 74 75 75 76 75 75 76
25 28 32 37 42 49 56 62 68 72 72 72 71 70 70 71 71 71 70 69 69 68 68 68 68 68 66 65 64 64 64 64 63 63 64 64 64 63 63 63 63 63 63 64 64 64 65 66 66 66 67 67 67 68 68 69 70 70 71 71 72 73 73 74 74 75 76 76 77 77 78 78 78 77 76 76 75 73 73 73 74 75 76 76 77 76 77 77
23 26 29 33 37 42 48 55 62 68 73 76 75 74 73 72 72 72 71 71 70 70 69 69 69 69 69 68 67 67 67 66 65 65 65 65 66 66 66 66 66 66 66 66 66 66 67 67 68 69 69 70 70 71 71 71 72 72 72 73 74 75 75 75 76 77 77 77 77 77 77 77 77 76 75 74 73 72 73 73 74 75 77 78 78 78 78 79
22 24 26 29 32 36 40 46 52 59 66 72 76 78 77 75 74 73 72 72 71 71 70 70 70 70 70 70 69 70 70 69 68 68 67 67 67 67 68 68 68 68 68 68 68 68 69 69 70 71 72 72 72 73 73 74 73 73 74 74 75 76 76 77 77 77 77 77 76 76 74 75 76 75 74 73 73 73 73 75 75 76 77 79 80 80 80 79
20 21 22 24 26 29 33 37 42 48 55 61 68 74 77 79 77 75 74 73 73 72 71 71 70 70 70 70 70 70 71 70 70 70 70 69 69 68 69 69 69 70 70 70 70 70 71 71 72 73 73 74 74 74 74 74 74 74 75 74 75 76 77 77 78 77 77 76 75 74 71 72 75 74 73 73 73 74 75 76 77 78 80 81 81 81 80 79
17 17 18 20 21 23 26 30 35 40 45 50 55 61 68 73 77 79 78 76 75 73 73 72 71 70 69 69 70 70 70 70 70 70 70 70 69 69 69 70 70 70 71 71 71 72 72 73 74 74 75 75 75 75 75 75 75 75 75 75 75 75 75 77 77 77 75 74 74 73 69 70 74 74 74 75 75 76 77 78 80 81 82 82 80 80 80 81
15 15 15 17 18 20 22 25 29 33 38 42 46 51 56 61 67 73 77 79 79 77 75 73 72 71 70 70 70 70 70 70 70 70 70 69 70 70 70 70 70 71 71 71 72 73 73 74 75 75 76 76 76 76 76 76 76 76 76 75 75 75 74 74 75 74 73 72 72 71 68 69 73 75 76 78 78 78 79 81 82 82 82 80 79 80 81 82
13 13 14 15 16 18 19 21 23 26 30 34 38 43 47 51 56 61 67 74 78 80 79 77 75 73 72 72 72 71 71 71 71 71 70 70 70 70 70 71 71 72 72 73 73 74 75 76 77 77 77 78 78 77 77 77 77 76 75 74 74 74 73 72 73 72 70 69 69 69 68 70 75 78 79 80 79 80 83 83 81 79 79 80 81 82 82 82
11 11 12 13 14 15 16 17 19 21 23 25 29 34 39 44 48 52 57 62 68 73 77 78 78 77 76 75 74 73 73 73 72 72 72 72 72 71 71 72 72 73 74 74 75 75 76 77 78 79 79 78 78 78 77 76 77 76 75 73 72 72 71 71 71 69 68 68 68 70 71 74 77 80 81 80 81 83 84 82 78 78 80 82 83 83 83 84
10 10 10 11 11 12 12 12 13 14 16 19 21 25 30 35 40 45 49 54 58 62 67 71 75 76 78 78 76 75 75 74 74 74 73 74 73 73 73 73 74 74 74 75 75 76 76 77 78 78 78 77 77 76 76 75 75 74 73 71 70 70 69 70 69 68 68 69 70 72 74 75 76 79 81 82 84 85 83 80 79 80 81 83 84 84 85 86
8 8 9 9 10 10 10 10 10 10 11 13 16 18 22 26 31 36 42 47 52 55 58 62 66 70 73 76 76 77 77 76 75 75 75 75 74 74 74 74 74 75 75 75 76 76 75 76 77 77 77 76 75 74 74 73 72 71 70 69 69 68 68 69 68 68 69 70 71 74 74 75 77 81 84 86 87 85 82 81 80 81 82 83 85 86 87 87
6 7 8 9 10 11 11 11 10 10 9 9 10 13 16 20 24 28 34 40 46 50 53 56 59 62 65 68 70 72 74 75 75 74 75 74 74 73 73 73 73 74 73 73 74 74 74 74 75 75 74 74 73 72 71 70 70 69 69 69 69 68 68 68 69 69 71 71 72 75 76 78 80 84 87 88 86 83 82 82 81 81 83 85 87 87 87 87
5 6 8 9 10 12 12 13 12 11 11 9 9 9 12 15 19 23 27 32 38 44 48 51 54 56 58 60 62 65 67 68 69 69 70 70 70 69 69 69 69 70 70 69 70 71 71 71 72 72 71 71 70 70 70 69 69 69 70 70 71 71 70 69 70 71 73 74 76 79 80 82 85 86 87 86 84 82 82 82 83 85 87 87 87 86 86 86
6 7 9 10 12 12 13 13 13 13 13 12 11 10 10 12 15 19 23 27 31 36 42 46 49 52 53 54 56 58 59 61 61 61 62 63 63 63 64 64 65 66 66 65 65 67 68 69 70 70 69 69 69 69 70 70 71 71 73 72 72 73 72 72 73 74 77 78 79 82 83 85 87 86 84 83 82 82 83 85 87 89 89 88 87 87 86 86
6 8 10 11 12 13 14 14 14 15 15 14 14 13 13 12 13 16 19 23 27 32 36 41 45 48 50 51 52 53 54 55 56 56 57 58 59 60 62 63 63 64 65 64 64 66 68 68 68 68 68 68 69 70 70 70 71 72 73 73 73 74 75 75 76 78 80 81 83 85 86 86 85 82 82 82 83 85 87 88 89 89 89 88 88 87 87 88
7 9 10 12 13 15 16 16 17 17 17 17 17 17 17 16 16 17 19 21 25 29 33 38 41 45 47 49 50 51 52 53 53 54 55 57 59 60 61 62 63 64 64 64 65 65 65 65 66 66 67 68 69 70 71 72 73 74 76 76 77 78 79 80 81 82 83 85 86 87 87 85 83 82 83 84 87 88 90 90 90 89 88 88 88 88 89 90
8 10 12 13 15 16 17 18 19 19 19 19 20 20 20 20 21 22 22 23 25 27 31 35 38 42 44 47 49 50 51 52 52 54 54 55 57 58 59 60 62 63 64 64 65 65 65 66 66 68 69 70 71 72 74 74 75 77 79 80 81 82 83 84 85 85 85 84 85 87 86 83 83 85 86 87 89 90 90 90 90 89 88 88 88 89 90 91
9 11 13 15 17 18 19 20 21 21 21 22 22 22 23 24 24 25 26 27 28 29 32 34 37 39 42 44 46 48 49 51 52 53 54 55 57 58 59 61 62 63 64 65 67 68 69 69 70 71 72 73 74 76 77 78 78 79 81 82 82 83 83 84 84 84 83 82 83 86 85 83 85 89 89 88 89 89 90 90 90 89 88 88 89 90 90 90
12 13 15 17 19 20 21 21 22 22 23 24 24 25 26 27 27 28 29 30 31 32 34 36 38 40 41 43 45 47 49 50 51 53 54 55 57 58 59 60 62 63 65 67 69 70 72 73 74 74 76 77 78 78 79 79 79 80 81 82 82 82 83 83 83 83 83 82 83 85 85 85 87 90 91 90 89 89 90 90 89 88 88 89 89 89 89 87
14 16 18 20 21 22 23 24 24 25 25 26 26 27 28 29 30 31 31 33 33 35 36 37 39 40 42 44 45 47 49 50 51 53 54 55 57 58 59 61 62 64 65 67 69 72 73 75 76 77 78 79 79 80 79 79 79 80 81 81 82 82 83 83 83 83 84 82 83 85 86 87 88 90 91 91 90 90 90 89 88 88 88 89 88 87 87 85
18 20 22 23 25 26 27 27 28 28 28 28 28 29 30 31 32 32 33 35 36 37 38 39 40 41 43 44 46 47 49 50 52 54 55 56 58 60 61 62 64 65 67 68 69 71 73 75 76 77 78 78 78 78 78 78 77 78 79 79 80 80 81 81 81 81 82 81 83 86 87 88 89 89 91 91 90 90 90 89 89 89 88 87 86 85 84 82
20 23 26 28 29 30 31 31 32 32 31 31 31 32 32 33 34 35 35 36 38 39 40 41 42 43 45 46 47 48 50 52 53 55 56 57 59 61 62 63 65 66 67 68 69 70 71 72 73 74 75 75 75 75 75 75 75 76 76 77 77 77 77 77 78 79 81 82 84 86 87 89 90 90 90 90 90 90 90 90 89 87 86 85 84 83 80 76
22 25 29 32 33 34 34 35 36 36 36 36 35 35 36 36 36 37 38 38 39 40 41 42 43 44 46 47 48 49 51 53 54 55 56 58 59 60 61 62 63 64 65 66 67 67 68 69 70 71 71 71 72 72 73 73 73 72 72 73 73 74 75 75 78 80 82 83 85 86 88 90 90 90 89 90 90 90 90 88 86 85 84 82 80 76 73 71
25 29 33 35 36 37 38 38 39 39 40 39 39 39 39 39 39 39 39 39 40 41 41 41 42 44 45 47 48 49 50 51 53 54 55 56 56 57 58 59 60 61 62 63 64 65 66 66 67 68 68 69 69 69 69 69 69 69 70 72 73 75 76 77 78 81 82 84 86 87 88 89 88 88 89 89 89 88 87 85 84 82 80 77 74 72 72 73
29 33 36 37 39 40 40 41 42 42 42 42 41 41 40 40 39 39 39 39 39 39 39 39 40 41 43 44 45 46 47 48 49 50 51 52 53 54 55 56 57 57 58 59 60 61 63 65 65 66 66 67 67 66 66 67 68 69 71 74 75 77 78 77 79 80 82 83 84 85 86 87 86 86 86 87 86 86 85 83 81 78 75 73 73 74 76 77
33 35 38 39 41 42 43 43 44 44 43 42 42 41 40 38 37 35 35 35 35 35 36 36 36 37 38 39 40 41 42 44 44 45 47 48 48 50 51 52 53 54 54 55 55 56 58 61 62 63 63 64 65 65 66 67 68 70 73 75 77 79 80 78 78 79 79 80 82 84 85 85 84 83 83 83 83 83 82 79 77 74 74 74 76 78 79 80
35 37 39 41 43 44 45 45 45 44 43 42 40 38 36 34 32 31 30 30 30 31 32 32 33 33 34 35 36 37 38 40 41 42 43 44 45 46 47 48 49 50 50 51 52 52 53 56 59 60 62 63 64 65 67 68 70 71 73 75 77 78 79 79 79 79 79 79 80 82 82 82 82 81 80 80 79 78 77 75 74 75 76 78 80 82 83 84
37 39 41 43 44 45 46 46 46 45 43 41 37 33 31 29 28 27 26 27 27 28 29 30 30 31 32 32 33 34 35 36 38 39 41 42 42 43 44 45 46 47 48 49 50 50 49 52 57 60 63 64 65 66 68 69 71 72 73 75 76 78 79 80 79 79 80 79 78 79 80 79 79 77 75 75 74 74 74 75 77 79 81 83 85 86 88 89
39 41 43 45 46 47 47 47 47 45 41 36 33 29 27 26 24 24 24 25 25 26 27 27 28 29 30 31 31 32 33 34 36 37 39 40 42 43 43 45 45 46 48 49 50 51 49 50 56 62 64 66 67 67 69 71 72 74 75 76 78 78 79 79 78 78 78 77 75 76 76 75 74 72 72 73 74 75 77 79 81 83 85 87 89 91 92 94
41 43 45 46 47 48 48 48 46 42 37 32 29 27 25 24 23 23 23 24 24 25 26 26 27 28 29 31 31 32 33 34 35 37 38 40 41 43 44 45 46 47 49 50 51 53 52 51 55 62 65 66 68 69 70 72 74 75 76 77 78 78 77 77 76 75 74 73 70 70 71 72 72 73 74 76 78 79 81 83 85 87 89 91 93 95 97 98
42 45 46 47 48 48 49 47 43 38 34 30 27 25 24 24 23 23 23 24 24 25 26 27 28 29 30 31 33 34 34 36 37 38 39 41 42 44 45 46 47 49 50 52 53 55 56 54 56 61 65 67 69 69 70 71 72 73 73 73 73 73 72 72 71 71 71 69 68 68 70 73 75 77 79 81 82 84 86 88 90 91 93 95 97 98 99 100
44 46 47 47 47 48 48 44 38 34 31 29 26 25 25 24 24 24 24 25 25 26 27 28 29 30 31 33 34 35 36 37 39 40 41 43 43 45 47 48 49 51 52 54 55 56 58 58 59 62 65 66 66 65 64 65 65 65 65 66 66 66 67 67 68 70 72 72 73 74 74 76 79 82 84 86 87 89 90 92 93 94 95 97 98 99 100 100
45 47 47 47 48 48 45 40 34 31 29 27 26 26 26 25 25 25 26 26 27 27 28 29 30 32 33 34 36 37 38 39 40 42 43 45 46 47 49 50 51 53 54 56 57 58 58 58 57 58 59 60 60 59 58 59 60 61 62 64 65 66 68 69 70 73 76 77 79 80 79 79 82 85 86 87 89 91 92 93 94 95 96 98 99 100 102 103
47 48 48 48 48 46 41 36 32 30 28 27 27 27 27 27 27 27 27 28 29 29 30 31 32 33 34 36 37 39 41 42 42 44 45 46 48 49 50 52 53 54 55 55 55 55 54 52 51 51 53 55 56 57 58 59 62 64 66 67 69 71 72 74 74 75 78 79 81 83 83 82 83 85 87 89 90 92 93 95 96 97 98 100 101 102 103 104
48 48 49 49 47 42 37 34 31 29 28 28 28 28 28 29 29 29 29 30 31 32 33 34 35 35 36 38 39 41 42 44 45 46 47 48 49 50 50 51 50 50 50 49 49 49 49 49 48 50 54 58 60 61 62 64 66 68 70 71 72 73 75 76 77 77 78 80 82 84 84 84 85 87 88 89 91 93 94 96 98 99 100 101 103 104 105 106
48 49 49 48 43 38 34 31 30 29 29 29 30 30 30 30 31 31 32 32 33 34 35 36 37 38 38 39 40 41 43 45 45 46 46 46 47 46 46 45 45 45 45 45 47 49 51 53 53 54 56 59 61 63 64 66 68 70 71 72 73 73 75 76 77 78 79 81 83 86 86 87 88 89 90 91 93 94 96 98 100 102 103 104 106 108 109 111
49 49 49 45 38 34 31 29 28 29 30 30 30 31 31 32 32 33 34 34 35 36 37 38 39 39 40 40 41 41 41 41 42 41 41 41 41 42 42 43 44 45 47 48 50 53 56 58 59 60 61 61 61 63 64 65 66 69 72 74 74 75 77 79 80 81 83 84 87 89 90 91 93 94 95 96 98 99 101 103 105 107 108 109 111 113 114 116
50 50 46 40 34 31 29 28 29 29 30 30 31 31 32 33 34 34 35 36 36 37 37 38 38 38 38 38 37 37 36 36 37 37 38 39 41 43 44 46 48 49 51 53 54 56 58 61 62 64 66 66 65 66 67 67 68 71 74 77 78 79 80 82 83 84 86 87 89 91 93 94 95 97 98 99 101 103 106 108 110 111 113 114 116 117 119 120
50 47 41 34 31 30 29 29 29 29 30 31 32 33 33 34 35 35 36 35 36 35 35 34 34 34 34 34 34 35 36 36 37 39 41 42 44 46 48 49 51 53 54 56 57 58 59 62 63 66 69 70 69 71 73 73 74 75 76 79 80 81 82 83 84 85 87 88 89 92 94 95 97 98 100 102 104 106 109 110 112 114 115 116 118 119 119 120
47 41 34 30 30 30 29 30 30 31 32 32 33 34 34 34 34 34 34 33 32 31 31 31 31 31 32 33 34 36 37 39 41 42 44 46 47 50 52 53 54 55 57 58 60 61 62 64 65 67 71 74 74 74 76 77 77 78 78 80 81 82 82 83 84 86 88 90 91 93 96 98 99 101 103 105 107 109 111 112 114 115 115 116 117 116 116 116
42 34 30 29 29 30 30 31 31 32 33 33 33 34 33 33 32 31 30 29 28 28 29 30 31 32 32 33 35 36 38 40 42 44 46 48 50 51 54 56 57 58 60 61 62 63 64 66 67 67 70 74 75 76 77 78 79 80 80 81 81 82 84 85 86 88 91 93 95 96 99 101 103 105 106 108 109 111 112 113 113 114 113 113 113 113 112 112
35 30 29 30 30 31 31 32 32 33 33 33 32 31 30 30 29 28 28 28 29 29 30 31 31 32 33 35 37 39 40 42 44 46 48 50 52 54 56 57 59 60 62 63 64 65 66 67 68 68 70 74 75 76 78 80 81 82 82 83 83 84 85 87 89 92 94 96 99 101 103 104 106 107 108 109 110 110 110 110 110 110 110 110 110 109 109 109
31 29 30 30 31 31 32 32 32 32 31 30 29 28 28 27 27 28 28 28 29 30 31 32 34 36 38 40 42 44 45 47 49 50 52 54 55 56 58 59 60 62 63 64 65 67 68 69 70 70 71 74 75 76 78 80 82 84 84 85 86 87 89 91 94 96 98 100 102 103 104 105 106 106 107 107 107 107 107 107 107 106 107 107 107 107 107 107
29 30 30 31 32 32 32 31 30 29 28 27 27 26 26 27 27 28 28 29 30 32 34 36 39 40 42 44 46 48 49 51 52 54 55 56 57 59 60 61 62 64 65 67 68 69 70 71 73 72 72 74 75 76 78 81 83 85 87 88 90 92 93 96 98 100 101 102 103 103 103 103 102 102 102 102 103 103 103 104 103 103 104 104 105 104 104 104
Wind_Direction
207 208 209 210 211 212 212 212 211 213 213 214 214 214 215 216 218 219 220 222 223 221 222 223 225 225 226 227 229 231 232 234 236 238 241 242 242 244 245 247 250 251 253 254 255 256 257 256 256 256 257 259 262 265 269 271 273 275 276 276 277 277 278 279 279 279 279 280 281 282 283 284 285 285 285 285 286 286 287 287 287 287 287 287 288 288 289 289
209 210 211 211 212 214 215 215 215 216 216 216 217 217 217 218 220 222 222 224 226 227 227 228 230 231 232 232 233 234 236 237 238 240 242 243 244 245 245 248 250 252 254 255 256 255 255 256 257 259 262 264 266 269 272 274 275 276 277 277 277 278 279 280 280 280 281 281 282 283 284 285 285 285 286 286 287 287 287 288 288 288 288 288 289 289 289 289
210 212 213 213 214 215 217 218 218 219 219 219 220 220 220 221 222 223 225 226 228 229 230 230 232 234 235 237 237 238 240 240 242 243 244 245 247 248 249 250 252 255 257 259 260 260 259 260 262 263 266 268 270 272 273 274 275 276 276 277 277 278 279 280 281 281 282 283 284 284 285 285 285 286 286 287 287 288 288 288 288 288 288 288 289 289 289 289
212 213 215 215 216 216 217 219 220 221 222 222 223 223 224 224 224 224 226 228 228 230 231 231 233 234 235 238 239 241 242 243 244 244 246 247 248 250 251 253 255 257 259 260 261 262 262 262 263 265 267 268 269 271 272 273 274 274 275 276 277 278 279 280 281 282 283 284 285 285 285 286 286 287 287 288 288 288 288 288 288 288 289 289 289 289 290 290
213 215 216 217 218 218 218 219 221 223 224 224 225 225 226 227 227 227 227 228 229 230 232 232 234 234 235 238 239 241 242 244 245 246 247 248 249 250 251 253 255 257 259 260 261 262 262 263 263 265 266 267 269 270 272 273 274 275 276 278 279 280 281 282 282 283 284 284 285 285 285 286 287 287 288 288 288 288 288 289 289 289 289 289 290 290 291 292
214 216 217 219 220 220 220 220 221 223 225 226 226 227 228 229 230 231 230 230 230 231 232 233 234 235 236 238 239 240 242 243 245 246 248 249 251 251 252 253 255 257 258 260 261 263 264 265 266 267 268 269 271 272 274 275 276 277 278 279 280 281 282 283 283 283 284 284 285 285 286 286 287 288 288 288 288 289 289 289 289 289 290 290 291 292 292 293
216 217 218 220 221 222 223 222 223 223 225 226 227 228 229 230 231 232 233 233 232 232 234 235 235 235 236 237 239 240 241 242 244 246 247 249 251 252 253 255 256 257 259 260 262 264 266 267 269 270 271 272 273 274 275 276 278 279 279 280 281 282 283 283 283 284 284 285 285 286 286 287 287 288 288 289 289 289 289 289 289 289 290 290 291 292 293 293
219 220 220 222 223 224 225 225 225 225 225 226 227 229 230 231 232 233 234 235 235 235 235 237 237 237 237 238 239 240 241 243 244 245 247 248 250 252 253 255 256 257 259 261 262 264 266 268 269 271 272 273 274 275 276 277 278 279 280 281 281 282 283 283 283 284 284 285 286 286 287 287 288 288 289 289 289 289 289 289 289 289 290 290 291 292 292 292
224 223 223 224 225 226 226 227 227 227 227 227 228 229 230 231 232 233 235 236 237 237 237 238 239 240 240 240 241 241 242 244 245 246 248 249 250 253 254 255 257 258 260 261 263 265 266 268 270 271 272 273 275 276 277 278 279 280 280 281 282 282 283 283 284 284 285 285 286 287 287 287 288 288 289 289 289 289 290 290 290 290 290 291 291 292 292 292
228 227 226 226 227 228 228 228 229 229 229 229 229 229 230 231 232 233 235 236 238 239 240 240 241 242 242 242 243 244 244 245 247 248 249 251 253 255 256 257 258 260 262 263 265 266 268 269 270 271 272 274 275 276 277 278 279 280 281 281 282 282 283 283 284 284 285 286 286 287 288 288 289 289 289 289 289 290 290 290 290 291 291 291 291 292 293 293
234 232 231 230 230 230 230 231 231 231 231 231 231 231 231 231 232 233 234 236 237 239 240 241 243 243 244 244 245 246 247 248 249 250 251 252 254 256 257 258 260 262 264 265 267 268 269 270 271 272 273 274 275 276 277 278 279 280 281 281 282 282 283 283 284 284 285 286 287 288 289 289 289 289 289 289 290 290 290 291 291 291 291 291 292 293 294 294
243 241 239 237 236 235 235 234 235 235 234 234 233 233 233 232 232 233 234 235 237 238 240 241 243 244 245 246 246 247 249 250 251 252 253 254 255 256 258 259 261 263 265 267 268 269 270 271 271 272 273 274 275 276 277 278 279 279 280 281 282 283 283 284 284 285 286 287 288 289 290 290 290 290 290 290 291 291 291 291 291 291 291 292 293 294 294 294
245 246 247 247 246 244 242 240 239 238 238 237 236 236 236 235 234 234 235 236 237 238 239 241 242 244 245 246 247 248 250 251 252 253 254 256 257 258 259 260 261 263 265 267 268 269 270 271 272 273 273 274 275 276 277 278 279 279 280 281 282 283 284 285 285 286 287 288 288 289 290 290 290 290 290 290 291 291 291 291 292 292 292 293 294 294 294 295
247 250 255 258 258 255 251 248 245 244 242 241 240 239 238 238 237 236 236 236 237 238 239 241 242 244 246 247 248 249 250 252 253 254 255 256 258 259 260 261 262 264 265 266 268 269 270 271 272 273 274 275 276 276 277 278 279 280 281 282 282 283 284 285 286 287 288 289 289 290 291 290 289 290 290 290 291 292 292 292 293 293 293 293 294 294 295 296
252 258 263 269 274 273 267 259 254 249 247 244 242 241 239 239 239 238 238 238 238 239 240 241 243 244 246 247 249 250 251 252 254 255 256 257 258 259 261 262 263 264 265 267 268 269 270 272 272 273 274 275 276 277 278 279 280 280 281 282 283 283 284 285 286 287 289 290 290 291 291 289 289 290 291 291 292 292 293 293 294 294 293 294 294 295 296 295
258 265 270 277 284 286 283 276 268 260 254 248 244 242 241 239 238 238 238 239 239 240 241 242 243 245 246 248 249 250 252 253 254 255 256 257 259 260 262 263 264 265 266 268 269 270 271 272 273 274 275 276 277 278 279 280 280 281 282 282 283 284 285 286 286 288 289 290 290 290 289 289 289 290 290 291 292 293 294 294 294 294 294 294 295 296 296 295
265 270 276 283 288 290 290 286 278 270 264 255 247 243 242 241 239 238 238 239 239 240 242 243 244 245 246 248 249 251 252 254 255 256 257 258 260 261 262 264 265 267 268 269 270 271 272 273 274 275 275 276 277 278 279 280 281 281 282 283 284 284 285 286 286 288 289 288 288 288 288 289 290 289 290 291 293 294 295 294 294 293 293 294 294 295 294 294
270 274 280 287 291 293 297 297 288 277 268 261 253 246 243 241 239 238 237 237 238 240 241 243 244 245 247 248 249 251 252 254 255 257 258 259 261 262 263 265 266 268 269 270 271 272 273 274 275 275 276 277 278 279 280 280 281 282 282 283 284 285 286 286 287 288 287 287 287 288 288 289 289 288 289 291 293 294 294 293 293 293 293 294 294 294 294 294
271 278 287 295 300 302 305 310 311 301 285 269 258 250 245 241 239 238 237 236 236 238 240 241 243 245 246 248 249 251 252 254 255 257 259 260 262 263 265 266 267 269 270 271 271 272 273 274 275 275 277 277 278 279 279 280 281 282 283 284 284 285 286 286 287 286 286 286 287 287 288 288 288 288 290 292 294 294 294 293 293 293 293 294 294 294 294 294
285 296 305 312 317 319 319 320 323 321 313 294 273 259 249 243 239 237 237 236 236 236 238 240 242 244 246 248 250 251 253 254 256 258 260 261 263 265 266 267 268 269 270 271 272 273 273 274 275 275 276 277 278 279 279 280 281 282 283 283 284 284 284 284 285 285 285 286 286 286 287 287 288 289 292 293 293 293 293 293 293 293 294 294 294 294 294 294
312 320 326 330 331 330 329 328 327 326 323 316 302 281 263 250 243 239 237 237 237 237 238 240 242 245 247 249 251 252 254 255 257 259 261 262 264 265 266 267 268 269 270 271 272 273 274 274 275 276 277 278 278 279 279 280 280 281 281 282 282 282 282 282 282 283 283 284 285 286 287 287 288 290 292 292 292 292 292 292 293 294 294 294 294 294 294 294
331 337 339 338 335 333 331 330 328 326 325 321 314 303 286 267 255 247 241 239 239 239 240 241 243 246 248 250 252 254 255 257 258 259 261 262 263 264 265 265 266 267 269 270 272 273 273 273 274 275 276 277 278 278 279 279 280 280 280 281 281 281 281 282 282 282 283 284 285 286 287 288 290 291 291 290 291 291 291 292 293 294 294 295 295 295 295 294
342 343 340 337 334 332 330 329 328 326 324 320 315 307 298 286 273 262 252 246 243 241 241 242 244 247 249 252 254 255 257 258 259 259 259 260 261 262 262 263 265 266 268 270 271 272 273 275 276 277 277 277 278 278 278 279 279 280 280 280 281 281 281 282 282 283 283 284 285 286 287 289 290 290 289 289 289 290 291 292 293 294 295 295 295 295 295 294
343 342 339 337 335 334 333 330 328 326 322 318 313 307 301 293 284 275 266 258 252 249 246 245 246 247 250 252 254 256 258 259 261 261 262 263 264 265 266 267 268 269 271 272 273 275 277 278 280 280 279 279 279 279 279 278 278 279 279 279 280 280 281 281 282 283 284 285 286 287 287 288 289 288 288 289 289 290 291 293 294 294 295 295 295 295 294 293
342 344 343 342 339 337 334 330 327 324 320 316 312 307 302 296 289 282 274 267 262 258 255 253 252 252 253 254 256 257 258 260 261 263 264 266 267 268 270 271 272 273 275 276 277 278 278 278 279 279 279 279 279 280 280 279 279 279 279 280 280 281 281 282 282 283 285 286 287 288 288 288 288 288 288 289 290 291 292 293 294 294 295 295 295 294 294 293
342 345 345 344 341 337 333 330 326 322 317 313 310 307 302 297 291 286 280 274 269 266 263 261 259 258 258 259 260 261 262 262 263 264 266 267 268 269 271 272 273 274 275 276 277 278 278 278 278 278 278 279 279 280 280 280 280 280 280 281 281 282 282 283 284 285 285 287 288 288 288 289 289 289 289 290 290 291 292 293 294 294 295 295 294 294 294 294
338 342 343 341 337 332 329 325 321 317 314 311 308 304 300 296 292 288 284 280 276 272 269 267 265 264 263 263 264 264 265 265 266 266 267 268 269 270 271 272 273 274 275 275 276 277 278 279 279 279 280 280 280 280 281 281 281 281 281 281 282 282 283 283 284 285 286 287 288 288 288 289 289 290 291 291 292 292 293 294 294 295 295 295 295 294 294 294
336 336 336 335 331 327 324 322 320 316 313 309 306 302 298 295 292 289 286 283 280 276 273 271 270 269 268 267 268 268 268 268 268 269 269 270 270 271 272 272 273 273 273 274 274 275 277 278 279 279 280 280 281 281 281 281 281 281 281 282 282 283 283 284 285 285 286 287 288 288 289 289 290 290 291 292 293 294 294 295 295 295 295 295 294 294 294 294
333 331 330 330 329 326 323 321 318 316 313 309 306 302 298 295 291 288 285 283 280 278 276 274 273 272 271 270 270 270 270 270 270 270 271 271 271 272 272 272 273 273 274 274 274 275 276 277 278 279 280 280 281 282 282 282 282 282 283 283 283 284 284 285 285 286 286 287 287 288 289 290 290 291 292 293 294 295 295 295 295 295 295 294 294 294 294 293
328 326 326 328 328 324 322 320 317 315 313 310 307 303 299 295 292 289 285 282 280 278 276 275 274 273 272 271 271 270 270 270 270 270 270 270 271 271 271 272 272 273 274 274 275 275 276 277 278 279 280 281 281 282 283 283 284 284 284 285 285 285 285 285 286 286 287 288 288 289 290 291 291 292 293 294 295 295 295 295 295 295 294 294 293 293 292 291
325 324 325 327 326 323 321 319 317 316 314 311 308 305 301 297 293 290 286 283 281 279 277 275 274 274 273 273 272 271 271 271 271 271 271 271 271 272 272 273 273 274 274 275 276 276 277 278 279 280 281 282 283 283 284 284 285 285 285 285 285 285 285 286 287 287 288 289 290 290 291 292 292 293 294 294 294 294 294 294 294 294 293 292 292 290 289 288
324 324 326 325 324 322 320 318 317 316 314 312 309 306 302 299 295 292 289 285 282 281 279 277 276 275 274 274 274 273 273 273 273 273 273 273 273 273 274 274 274 275 276 277 278 279 280 281 282 282 283 283 284 284 285 285 285 286 286 286 286 286 286 287 288 289 289 290 290 291 292 292 293 294 294 294 294 294 294 293 293 293 292 291 290 289 288 288
324 325 325 324 322 321 319 317 316 315 313 312 309 306 302 299 296 293 290 287 285 283 281 279 278 277 276 275 276 276 276 275 276 276 276 276 276 276 276 277 277 277 278 279 280 282 283 284 284 285 285 285 286 286 286 287 287 287 288 287 288 287 288 288 288 289 290 290 291 292 292 292 293 294 294 294 294 294 294 294 293 292 292 291 290 290 290 290
324 324 323 322 321 319 318 317 316 315 313 312 310 307 304 301 298 295 292 290 288 286 284 283 281 280 279 278 278 278 279 279 279 279 279 279 279 279 279 279 279 280 280 281 281 282 282 283 284 285 286 286 286 287 288 288 288 288 288 288 288 289 289 290 290 291 291 292 293 293 293 293 294 294 295 295 294 294 294 294 293 293 293 292 291 291 291 291
322 322 322 321 320 318 318 317 316 316 315 314 312 309 307 305 302 300 297 294 292 290 289 287 286 284 282 282 282 281 281 282 283 283 282 282 282 282 282 282 282 282 282 282 282 282 283 284 285 286 286 287 287 288 289 289 289 289 289 289 290 290 292 293 293 293 293 293 294 294 294 294 294 295 295 294 294 293 293 293 293 293 293 292 291 292 292 292
321 321 321 320 319 318 318 318 318 318 317 316 315 313 311 308 307 305 302 300 298 295 293 292 290 289 288 287 286 286 286 286 287 287 287 287 287 287 286 286 286 286 285 285 285 285 286 287 289 289 289 289 290 290 291 291 291 292 292 292 292 293 293 294 295 295 295 295 295 295 295 295 295 295 294 294 293 293 293 293 293 293 292 292 292 293 293 292
320 320 320 319 319 319 319 320 320 320 319 319 318 317 315 312 311 310 307 305 302 300 298 296 294 294 293 293 292 291 290 290 289 289 290 290 290 289 289 289 289 289 289 289 289 289 289 291 291 291 291 292 293 293 294 294 295 295 295 295 295 295 295 295 296 296 296 296 296 296 295 295 295 295 294 294 293 293 293 293 293 293 293 293 293 293 292 292
320 320 320 320 320 321 321 321 322 321 321 322 321 320 318 316 315 313 310 308 305 304 302 301 299 298 297 296 295 294 292 292 291 291 291 291 291 291 291 292 292 292 293 293 293 293 294 294 293 292 293 294 294 295 295 296 296 296 296 296 296 296 296 297 297 297 297 297 297 297 296 296 296 296 295 294 294 294 294 293 293 293 293 293 293 293 293 293
320 320 320 321 321 322 322 322 323 323 323 323 323 322 321 319 318 316 313 311 308 306 305 303 302 301 299 298 298 297 296 296 295 295 294 294 295 295 295 296 296 296 296 297 297 297 297 297 295 294 295 295 295 296 297 297 297 297 297 297 297 298 298 299 299 299 298 298 298 297 297 297 296 295 295 295 295 294 294 293 293 293 293 293 293 293 293 293
320 321 321 321 322 323 323 323 324 324 325 324 325 324 324 322 321 318 316 313 311 309 307 306 305 304 302 302 301 300 300 300 299 299 299 299 299 299 299 299 299 299 299 299 299 299 300 300 299 298 298 298 298 298 299 300 300 300 299 300 300 300 300 301 301 300 300 300 299 298 297 297 296 295 295 295 295 294 294 294 294 293 293 293 293 294 294 294
321 321 322 322 324 324 324 324 325 327 326 326 326 326 326 324 323 321 319 317 315 313 311 310 308 307 307 306 305 304 304 303 303 303 302 302 302 302 301 301 301 301 302 302 302 302 302 302 303 302 301 301 302 303 304 304 303 302 302 302 302 302 301 300 300 300 300 300 299 298 297 297 296 295 296 295 295 295 295 295 295 295 295 295 295 295 295 296
321 322 323 324 325 326 325 326 328 328 328 328 328 327 326 325 324 323 321 320 318 316 315 313 312 311 310 309 308 307 307 306 306 305 304 304 303 303 303 303 303 304 304 304 304 305 305 305 306 306 304 304 304 305 306 305 304 303 303 303 302 302 301 301 301 301 301 301 300 299 299 298 297 297 297 297 297 297 297 296 296 296 295 295 295 295 295 295
322 323 324 326 326 327 327 328 329 329 329 328 328 327 326 325 325 323 322 321 319 318 317 315 314 313 312 311 309 309 308 307 307 306 306 306 306 306 306 306 306 306 307 307 307 308 308 307 308 307 306 306 306 306 306 306 305 305 305 304 304 304 304 304 303 303 302 302 301 301 301 300 300 299 298 298 297 297 297 296 296 295 295 295 295 295 295 295
323 324 325 326 327 327 328 329 329 329 329 328 327 327 326 325 324 323 322 321 320 318 317 316 315 314 313 311 310 310 309 309 309 309 309 309 309 309 310 310 310 311 311 312 311 310 309 308 308 306 305 305 307 308 308 308 307 307 307 306 306 306 306 305 305 305 305 304 303 302 302 302 301 300 300 299 298 298 297 297 296 296 296 297 297 297 297 297
324 325 326 326 327 328 329 329 329 328 328 327 326 326 325 324 324 323 322 321 320 319 318 317 316 315 314 314 313 313 313 312 312 313 313 314 315 316 316 316 315 315 314 313 312 312 312 311 311 310 308 307 307 308 307 308 308 308 308 308 308 309 309 308 308 308 307 306 305 304 304 303 303 302 302 301 300 299 299 298 298 298 298 298 298 298 297 297
324 325 326 327 328 330 330 330 329 327 326 325 324 325 324 324 324 323 323 322 321 320 319 318 318 318 318 318 318 318 318 319 320 321 322 322 321 320 319 318 317 316 316 316 315 316 316 315 315 315 313 312 313 312 311 311 312 312 311 311 311 311 310 309 308 308 307 306 304 304 303 303 302 302 301 300 300 299 299 298 298 298 298 298 298 298 297 297
325 325 326 328 330 331 330 328 327 325 324 324 324 325 325 324 324 324 323 323 322 322 322 322 323 324 325 326 327 327 327 327 327 325 324 324 322 321 320 320 320 320 320 320 320 320 319 318 318 317 315 315 316 316 315 315 314 313 311 310 310 309 308 307 307 306 304 303 302 302 302 301 301 300 300 299 299 298 298 297 297 297 297 297 296 296 296 296
325 325 327 329 330 329 327 326 325 324 325 325 326 326 326 326 325 325 325 326 327 327 329 330 331 333 334 334 333 332 331 329 328 328 326 326 326 325 325 325 325 324 324 323 322 322 321 319 319 318 315 315 316 315 314 313 312 311 310 309 308 307 307 306 305 304 303 302 302 301 300 300 299 299 298 298 297 297 296 296 296 295 295 295 295 295 295 294
324 326 328 329 328 326 325 324 325 326 326 327 327 327 327 327 328 329 330 331 332 334 336 337 336 336 334 332 331 331 331 331 331 331 330 330 330 330 329 328 327 326 325 324 322 321 320 318 318 317 315 313 314 314 312 312 311 310 309 308 308 307 307 306 305 304 303 302 301 301 300 299 299 298 298 297 297 296 296 296 296 296 296 295 295 295 295 295
325 328 329 327 325 325 325 326 327 327 328 328 329 330 330 331 332 334 335 336 337 338 338 337 335 333 333 334 334 335 335 335 334 334 333 332 331 330 329 327 326 324 323 321 320 319 318 317 317 317 315 313 314 313 312 311 310 309 309 308 308 307 306 306 305 303 303 302 302 301 300 300 299 299 298 298 298 298 297 297 297 297 297 296 296 296 296 295
326 327 327 325 325 325 326 327 328 329 329 330 331 332 334 335 337 338 339 340 340 339 339 339 339 340 340 341 341 340 339 338 337 335 334 333 331 329 327 325 323 322 321 320 319 318 318 317 317 317 315 314 313 313 312 311 310 309 309 309 308 308 307 306 305 304 303 303 302 301 300 300 300 300 300 299 299 299 298 297 297 297 297 296 296 296 296 296
326 326 325 324 324 326 327 328 329 330 332 333 335 336 339 340 340 341 342 343 344 345 346 347 347 347 345 344 343 341 339 337 336 334 333 331 329 327 326 324 323 322 321 320 319 319 319 318 317 316 315 314 313 313 312 311 310 310 310 310 309 309 308 307 306 305 304 303 302 301 301 301 300 300 299 299 298 298 298 297 297 297 297 296 296 296 296 295
Height
10732 10734 10736 10738 10740 10742 10743 10745 10746 10747 10749 10750 10751 10752 10753 10754 10755 10756 10757 10758 10759 10760 10760 10761 10761 10761 10761 10762 10763 10764 10765 10765 10766 10767 10767 10768 10768 10769 10769 10769 10769 10769 10769 10769 10768 10768 10768 10767 10767 10767 10766 10766 10765 10764 10764 10763 10762 10761 10760 10759 10757 10756 10754 10753 10751 10749 10747 10745 10743 10741 10738 10737 10735 10733 10731 10729 10726 10723 10720 10717 10715 10712 10710 10706 10703 10699 10696 10693
10729 10731 10733 10736 10737 10739 10741 10742 10744 10745 10746 10748 10749 10750 10751 10752 10753 10754 10755 10756 10757 10757 10758 10758 10759 10759 10760 10761 10761 10761 10762 10762 10763 10763 10764 10764 10765 10765 10765 10766 10765 10765 10765 10765 10765 10764 10764 10764 10763 10763 10762 10761 10761 10760 10759 10758 10757 10755 10754 10753 10752 10750 10748 10746 10744 10741 10740 10738 10737 10735 10732 10730 10728 10726 10724 10721 10719 10716 10712 10709 10707 10704 10702 10698 10695 10691 10688 10684
10727 10729 10731 10733 10734 10736 10738 10739 10741 10742 10743 10745 10746 10747 10749 10750 10751 10752 10753 10754 10754 10755 10755 10756 10756 10757 10758 10759 10759 10759 10759 10760 10760 10761 10761 10761 10762 10762 10762 10762 10762 10762 10762 10761 10761 10761 10760 10760 10759 10758 10758 10757 10756 10754 10753 10752 10752 10750 10748 10747 10745 10744 10742 10740 10738 10735 10733 10731 10729 10728 10725 10722 10720 10719 10716 10713 10712 10709 10705 10702 10699 10696 10694 10691 10687 10684 10680 10677
10725 10726 10728 10730 10732 10733 10735 10736 10737 10738 10740 10741 10743 10744 10745 10747 10748 10749 10750 10751 10752 10752 10752 10753 10753 10754 10755 10756 10756 10756 10756 10757 10757 10758 10758 10758 10758 10758 10758 10758 10758 10758 10758 10758 10757 10757 10756 10755 10755 10754 10753 10752 10751 10750 10748 10747 10746 10745 10743 10741 10739 10738 10736 10734 10732 10729 10726 10724 10722 10720 10718 10715 10712 10711 10709 10706 10704 10702 10697 10694 10690 10688 10686 10684 10680 10676 10671 10668
10723 10724 10726 10727 10729 10730 10732 10733 10734 10735 10736 10737 10739 10740 10741 10743 10744 10745 10747 10748 10749 10749 10749 10749 10750 10751 10752 10753 10753 10753 10753 10754 10754 10754 10754 10755 10755 10755 10754 10754 10754 10754 10754 10754 10753 10753 10752 10751 10750 10749 10748 10747 10746 10745 10743 10742 10741 10739 10737 10735 10733 10731 10730 10728 10726 10724 10720 10717 10715 10713 10711 10708 10705 10703 10701 10698 10697 10694 10690 10686 10682 10679 10677 10675 10672 10668 10663 10658
10720 10722 10723 10724 10726 10727 10728 10729 10730 10731 10732 10733 10735 10736 10737 10738 10740 10741 10742 10744 10745 10745 10746 10746 10746 10747 10748 10749 10749 10750 10750 10751 10751 10751 10751 10751 10751 10751 10751 10751 10751 10750 10750 10750 10749 10748 10747 10746 10745 10744 10743 10742 10740 10739 10737 10736 10735 10733 10731 10729 10727 10725 10723 10721 10719 10717 10714 10711 10708 10706 10704 10701 10698 10696 10693 10690 10689 10687 10683 10678 10675 10671 10668 10666 10664 10660 10655 10650
10718 10719 10720 10721 10722 10723 10725 10726 10727 10728 10729 10729 10731 10732 10733 10734 10735 10736 10738 10739 10740 10741 10742 10742 10742 10743 10744 10745 10746 10747 10747 10747 10747 10747 10747 10747 10747 10747 10747 10747 10747 10746 10746 10745 10744 10744 10743 10741 10740 10739 10738 10736 10735 10733 10732 10730 10728 10726 10725 10723 10720 10718 10716 10714 10712 10710 10708 10704 10701 10699 10696 10694 10691 10689 10686 10683 10681 10679 10675 10671 10667 10664 10660 10658 10656 10654 10649 10643
10716 10717 10718 10719 10720 10720 10721 10722 10723 10724 10725 10726 10727 10728 10729 10730 10731 10732 10733 10734 10735 10736 10737 10737 10738 10739 10740 10742 10742 10743 10743 10743 10743 10743 10743 10744 10744 10743 10743 10743 10742 10742 10741 10741 10740 10739 10738 10737 10735 10734 10732 10731 10729 10727 10726 10724 10722 10720 10718 10716 10714 10711 10709 10707 10705 10703 10700 10697 10694 10691 10689 10687 10684 10681 10678 10675 10672 10670 10667 10663 10660 10657 10653 10650 10649 10647 10644 10639
10715 10715 10716 10716 10717 10717 10718 10718 10719 10720 10720 10721 10722 10724 10725 10726 10727 10728 10729 10730 10731 10732 10733 10733 10733 10734 10736 10737 10738 10739 10739 10739 10739 10740 10740 10740 10740 10739 10739 10738 10738 10737 10737 10736 10735 10734 10733 10731 10730 10729 10727 10725 10723 10721 10720 10718 10716 10714 10712 10709 10707 10705 10702 10700 10697 10695 10693 10691 10687 10684 10681 10679 10677 10674 10670 10666 10664 10662 10658 10655 10652 10648 10645 10643 10640 10639 10637 10633
10712 10713 10713 10713 10714 10714 10714 10714 10714 10715 10715 10716 10717 10718 10720 10721 10722 10724 10725 10726 10727 10728 10728 10729 10729 10729 10731 10732 10733 10734 10734 10735 10735 10736 10736 10736 10735 10735 10735 10734 10733 10733 10732 10731 10730 10729 10728 10726 10724 10723 10721 10719 10717 10716 10714 10712 10710 10708 10706 10703 10700 10698 10696 10693 10690 10687 10685 10684 10680 10676 10673 10670 10668 10665 10662 10658 10656 10654 10650 10647 10643 10640 10636 10633 10631 10630 10627 10624
10709 10710 10710 10711 10711 10711 10711 10711 10711 10711 10711 10711 10712 10713 10714 10716 10718 10719 10721 10722 10722 10723 10724 10724 10725 10725 10726 10728 10729 10729 10729 10730 10731 10731 10731 10731 10731 10730 10730 10729 10729 10728 10727 10726 10725 10723 10722 10720 10718 10717 10715 10713 10712 10710 10708 10706 10704 10702 10699 10696 10693 10691 10689 10686 10683 10680 10678 10677 10673 10669 10665 10660 10659 10657 10653 10650 10648 10646 10643 10639 10635 10632 10628 10623 10622 10621 10618 10614
10706 10707 10707 10708 10708 10708 10708 10708 10708 10708 10707 10707 10708 10708 10710 10711 10713 10715 10716 10717 10718 10719 10719 10719 10720 10721 10722 10723 10724 10724 10724 10725 10726 10726 10727 10726 10726 10726 10725 10725 10724 10723 10722 10721 10719 10717 10716 10714 10712 10710 10709 10707 10706 10704 10702 10700 10698 10696 10693 10690 10686 10683 10681 10678 10676 10673 10671 10670 10666 10663 10659 10650 10647 10648 10644 10642 10640 10638 10635 10630 10627 10624 10619 10615 10613 10611 10608 10605
10704 10704 10705 10705 10705 10705 10705 10705 10704 10704 10703 10703 10703 10704 10705 10707 10709 10711 10712 10713 10714 10714 10715 10715 10716 10717 10718 10719 10719 10720 10720 10720 10721 10721 10722 10721 10721 10721 10720 10720 10719 10718 10717 10715 10714 10712 10710 10708 10706 10704 10703 10701 10700 10698 10696 10694 10692 10689 10687 10684 10680 10676 10673 10670 10667 10665 10663 10662 10659 10656 10655 10644 10636 10638 10637 10634 10633 10630 10626 10622 10618 10615 10611 10607 10604 10601 10598 10595
10702 10702 10702 10702 10702 10701 10701 10701 10700 10699 10698 10698 10698 10699 10700 10701 10703 10706 10708 10709 10709 10710 10711 10711 10712 10713 10714 10714 10715 10716 10716 10716 10716 10717 10717 10716 10716 10715 10715 10714 10713 10713 10711 10710 10708 10706 10704 10702 10700 10698 10696 10695 10693 10691 10689 10687 10685 10682 10680 10677 10674 10671 10667 10662 10659 10657 10655 10654 10650 10648 10649 10640 10628 10628 10628 10626 10625 10622 10618 10613 10610 10606 10601 10599 10596 10593 10589 10585
10700 10700 10700 10699 10699 10698 10697 10696 10696 10695 10694 10693 10693 10693 10694 10695 10697 10699 10702 10704 10705 10705 10706 10707 10708 10709 10710 10710 10710 10711 10711 10711 10711 10712 10712 10711 10711 10710 10710 10709 10708 10707 10706 10704 10702 10700 10698 10696 10693 10691 10690 10688 10686 10684 10682 10680 10677 10675 10673 10670 10667 10664 10661 10657 10652 10650 10649 10646 10642 10639 10641 10634 10622 10619 10618 10617 10616 10614 10610 10605 10602 10598 10592 10590 10588 10584 10581 10575
10699 10699 10698 10697 10697 10695 10694 10693 10691 10690 10689 10688 10688 10688 10689 10690 10691 10694 10696 10698 10699 10700 10702 10703 10704 10706 10706 10705 10705 10706 10706 10706 10706 10706 10706 10706 10706 10705 10705 10704 10702 10701 10700 10698 10696 10694 10692 10689 10687 10684 10683 10681 10679 10677 10675 10672 10670 10668 10666 10664 10660 10657 10655 10651 10646 10645 10643 10639 10636 10633 10632 10627 10618 10611 10609 10609 10607 10605 10600 10596 10594 10590 10585 10582 10580 10576 10572 10566
10698 10698 10697 10696 10695 10693 10692 10690 10688 10686 10685 10684 10683 10683 10684 10685 10686 10688 10690 10692 10694 10695 10697 10698 10700 10701 10701 10701 10701 10701 10701 10701 10701 10701 10701 10701 10700 10700 10699 10698 10697 10695 10693 10692 10690 10688 10685 10682 10679 10677 10675 10674 10671 10670 10668 10665 10662 10660 10658 10657 10654 10650 10647 10643 10640 10640 10637 10634 10630 10627 10624 10621 10613 10604 10601 10602 10600 10596 10592 10588 10587 10583 10578 10575 10572 10568 10561 10556
10697 10696 10695 10694 10693 10691 10690 10688 10686 10684 10682 10681 10680 10680 10680 10681 10682 10684 10685 10687 10689 10690 10692 10693 10695 10696 10696 10696 10696 10696 10696 10696 10696 10696 10696 10695 10695 10695 10694 10693 10691 10689 10687 10685 10683 10681 10678 10675 10672 10669 10667 10666 10665 10662 10661 10658 10655 10653 10651 10650 10647 10644 10640 10635 10634 10633 10630 10628 10624 10619 10617 10614 10606 10596 10593 10594 10592 10589 10585 10581 10579 10576 10571 10567 10563 10558 10552 10547
10695 10695 10694 10692 10691 10690 10688 10686 10684 10682 10680 10679 10678 10677 10677 10678 10679 10680 10681 10682 10684 10685 10687 10688 10689 10689 10690 10690 10691 10691 10691 10691 10691 10691 10690 10690 10689 10689 10688 10687 10685 10683 10680 10678 10676 10674 10672 10668 10664 10663 10661 10659 10657 10655 10653 10651 10648 10646 10643 10642 10639 10637 10633 10628 10627 10626 10622 10620 10616 10611 10609 10606 10599 10590 10586 10585 10582 10580 10576 10573 10571 10568 10564 10559 10553 10547 10542 10538
10694 10693 10692 10691 10690 10688 10687 10685 10683 10681 10679 10678 10677 10676 10676 10676 10676 10677 10678 10679 10680 10681 10682 10683 10684 10684 10685 10685 10686 10686 10686 10686 10686 10686 10685 10685 10684 10684 10682 10680 10678 10676 10674 10671 10669 10667 10665 10661 10657 10656 10654 10652 10650 10648 10646 10644 10641 10640 10637 10634 10631 10629 10627 10622 10620 10617 10613 10612 10608 10602 10600 10597 10590 10585 10579 10576 10573 10570 10566 10563 10562 10559 10555 10550 10544 10538 10533 10528
10693 10692 10691 10690 10689 10687 10686 10684 10682 10681 10679 10678 10677 10676 10675 10675 10675 10675 10676 10677 10678 10679 10679 10680 10681 10681 10681 10682 10682 10682 10681 10681 10682 10681 10680 10680 10679 10678 10676 10674 10671 10668 10667 10665 10662 10660 10657 10654 10651 10650 10648 10645 10643 10640 10638 10636 10634 10632 10629 10627 10624 10621 10620 10617 10613 10610 10606 10604 10600 10595 10593 10587 10581 10579 10573 10567 10565 10562 10557 10554 10552 10549 10544 10540 10535 10530 10524 10518
10692 10691 10690 10689 10689 10687 10686 10684 10682 10681 10679 10678 10677 10676 10675 10675 10674 10674 10674 10675 10675 10676 10677 10677 10678 10678 10678 10678 10677 10677 10676 10676 10677 10676 10675 10673 10672 10671 10669 10667 10665 10662 10660 10659 10657 10654 10650 10647 10645 10643 10641 10638 10636 10632 10630 10629 10627 10624 10621 10619 10617 10613 10612 10610 10605 10602 10598 10596 10593 10587 10584 10579 10572 10570 10565 10559 10556 10553 10549 10546 10542 10538 10533 10529 10525 10520 10515 10509
10692 10691 10690 10690 10688 10687 10686 10684 10682 10681 10680 10678 10677 10676 10675 10674 10674 10673 10674 10673 10673 10673 10674 10674 10674 10674 10674 10674 10673 10673 10672 10671 10671 10671 10669 10668 10665 10664 10663 10661 10659 10656 10654 10653 10650 10647 10644 10641 10639 10637 10634 10631 10628 10625 10623 10622 10619 10615 10613 10611 10609 10605 10603 10602 10598 10594 10589 10587 10584 10579 10575 10570 10564 10560 10556 10551 10548 10543 10540 10537 10533 10529 10524 10519 10514 10510 10505 10499
10692 10691 10690 10689 10688 10686 10685 10683 10682 10681 10679 10678 10677 10676 10675 10674 10673 10673 10673 10672 10672 10671 10671 10671 10670 10670 10670 10669 10668 10668 10667 10666 10666 10665 10664 10664 10661 10659 10658 10656 10654 10651 10649 10647 10644 10642 10638 10635 10633 10630 10627 10624 10621 10618 10616 10615 10612 10608 10604 10603 10601 10597 10594 10592 10589 10586 10582 10578 10574 10568 10565 10562 10556 10550 10546 10542 10538 10534 10530 10527 10523 10519 10515 10510 10505 10499 10493 10487
10691 10690 10689 10688 10687 10685 10684 10683 10681 10680 10679 10678 10677 10676 10674 10673 10672 10671 10671 10671 10670 10669 10668 10668 10667 10666 10666 10665 10663 10663 10662 10661 10661 10659 10659 10659 10657 10655 10653 10650 10648 10645 10643 10641 10638 10635 10632 10629 10627 10624 10620 10617 10614 10611 10608 10606 10605 10601 10596 10594 10592 10589 10585 10582 10579 10577 10575 10570 10564 10556 10555 10554 10546 10538 10537 10534 10528 10524 10520 10517 10513 10509 10505 10500 10494 10487 10481 10475
10690 10689 10688 10687 10685 10684 10683 10682 10681 10680 10678 10677 10676 10675 10673 10672 10671 10669 10669 10668 10668 10667 10666 10665 10664 10663 10663 10661 10659 10659 10657 10656 10656 10655 10654 10653 10651 10649 10647 10644 10641 10639 10636 10634 10631 10628 10625 10622 10619 10616 10613 10610 10607 10603 10600 10598 10597 10594 10589 10586 10583 10580 10577 10573 10570 10567 10565 10562 10555 10546 10544 10544 10536 10526 10525 10525 10520 10515 10510 10506 10503 10499 10494 10489 10482 10476 10469 10463
10689 10688 10687 10686 10685 10683 10682 10681 10680 10679 10677 10676 10675 10673 10672 10670 10668 10667 10666 10665 10664 10663 10662 10661 10660 10659 10658 10656 10655 10654 10652 10652 10651 10650 10648 10647 10645 10642 10641 10638 10635 10633 10630 10627 10624 10620 10617 10614 10611 10608 10605 10602 10599 10596 10593 10590 10588 10586 10582 10578 10575 10572 10568 10565 10561 10558 10555 10553 10546 10537 10534 10533 10527 10516 10511 10511 10510 10506 10500 10495 10492 10488 10483 10477 10471 10464 10457 10452
10688 10687 10686 10685 10683 10682 10681 10679 10678 10677 10675 10674 10673 10671 10669 10667 10666 10664 10663 10661 10660 10658 10657 10656 10655 10654 10653 10652 10650 10649 10647 10646 10645 10644 10642 10641 10638 10635 10634 10631 10628 10626 10623 10620 10618 10614 10611 10607 10604 10601 10597 10594 10591 10588 10585 10582 10579 10577 10573 10570 10566 10563 10560 10556 10553 10548 10545 10543 10536 10528 10524 10522 10517 10509 10501 10499 10497 10494 10489 10485 10481 10477 10471 10465 10459 10452 10447 10442
10686 10685 10684 10683 10682 10680 10679 10677 10676 10674 10673 10671 10669 10668 10666 10664 10662 10660 10659 10657 10654 10653 10652 10651 10650 10648 10647 10646 10645 10643 10642 10640 10639 10637 10636 10634 10631 10629 10627 10624 10621 10618 10616 10613 10611 10608 10605 10601 10597 10594 10590 10586 10583 10580 10577 10574 10571 10568 10564 10561 10557 10554 10551 10547 10544 10539 10535 10533 10527 10519 10515 10510 10506 10500 10494 10489 10486 10482 10477 10473 10469 10465 10459 10453 10447 10442 10437 10432
10685 10684 10682 10681 10680 10678 10676 10674 10672 10670 10668 10667 10665 10663 10661 10659 10657 10655 10653 10651 10649 10647 10646 10645 10644 10642 10640 10640 10639 10637 10635 10634 10632 10630 10629 10627 10624 10622 10620 10617 10614 10611 10609 10606 10604 10601 10598 10594 10590 10587 10583 10579 10576 10572 10569 10566 10563 10560 10556 10551 10548 10544 10541 10539 10535 10530 10526 10523 10517 10511 10505 10500 10494 10490 10485 10480 10476 10471 10466 10461 10458 10453 10448 10442 10437 10432 10428 10423
10684 10682 10681 10679 10677 10675 10673 10671 10668 10666 10664 10662 10660 10658 10656 10653 10651 10649 10647 10645 10643 10641 10640 10639 10638 10636 10634 10632 10632 10631 10629 10627 10625 10624 10622 10620 10618 10615 10613 10610 10607 10605 10603 10600 10597 10594 10591 10587 10583 10579 10576 10572 10568 10565 10561 10558 10554 10551 10547 10542 10540 10535 10532 10531 10527 10521 10517 10512 10507 10502 10495 10489 10484 10480 10476 10471 10465 10460 10455 10450 10447 10443 10438 10433 10428 10423 10418 10414
10682 10681 10679 10677 10675 10672 10670 10667 10665 10662 10659 10657 10655 10652 10650 10647 10645 10643 10640 10639 10637 10635 10634 10633 10632 10630 10628 10626 10624 10623 10622 10620 10619 10617 10615 10613 10611 10609 10606 10604 10601 10599 10597 10594 10590 10587 10583 10579 10575 10571 10568 10564 10560 10557 10553 10550 10546 10543 10538 10533 10530 10526 10523 10523 10518 10512 10508 10502 10497 10492 10485 10479 10476 10472 10466 10460 10454 10448 10443 10439 10436 10431 10427 10423 10418 10413 10408 10404
10680 10679 10677 10674 10672 10669 10667 10664 10661 10658 10655 10652 10650 10646 10644 10641 10639 10637 10634 10632 10630 10629 10628 10627 10625 10624 10622 10620 10618 10617 10616 10614 10613 10611 10609 10607 10605 10602 10600 10598 10595 10593 10591 10588 10585 10581 10576 10570 10566 10563 10559 10555 10551 10548 10545 10541 10537 10534 10529 10524 10520 10516 10513 10514 10511 10505 10500 10494 10488 10483 10476 10470 10467 10463 10457 10449 10442 10436 10431 10428 10423 10419 10416 10411 10406 10401 10396 10393
10678 10676 10674 10671 10669 10666 10663 10660 10657 10654 10651 10648 10644 10641 10638 10635 10633 10631 10629 10627 10625 10623 10622 10621 10620 10618 10616 10615 10614 10612 10610 10608 10607 10605 10603 10601 10599 10596 10594 10592 10589 10587 10584 10582 10580 10577 10572 10565 10559 10556 10551 10547 10544 10540 10538 10534 10530 10527 10521 10516 10512 10505 10502 10502 10500 10496 10492 10487 10481 10473 10465 10461 10456 10452 10447 10439 10432 10425 10420 10416 10412 10408 10404 10399 10394 10389 10385 10381
10676 10674 10671 10668 10665 10662 10659 10656 10652 10649 10646 10642 10639 10636 10633 10630 10628 10626 10624 10623 10621 10619 10617 10616 10615 10614 10612 10611 10609 10608 10606 10603 10601 10600 10597 10595 10593 10591 10588 10586 10584 10581 10578 10576 10573 10572 10568 10561 10554 10549 10544 10540 10537 10534 10530 10526 10522 10520 10514 10508 10503 10498 10492 10490 10488 10484 10480 10478 10473 10463 10456 10451 10445 10441 10437 10429 10422 10417 10411 10407 10402 10398 10393 10387 10382 10378 10373 10369
10673 10671 10668 10665 10662 10658 10655 10651 10648 10644 10641 10637 10634 10631 10628 10626 10624 10622 10620 10619 10617 10616 10614 10613 10611 10610 10608 10607 10605 10603 10601 10599 10597 10594 10592 10590 10588 10585 10582 10580 10577 10575 10572 10570 10567 10565 10564 10557 10548 10542 10537 10533 10530 10527 10522 10518 10513 10510 10505 10500 10495 10490 10485 10480 10478 10474 10468 10465 10462 10454 10446 10442 10436 10432 10427 10419 10413 10408 10403 10398 10393 10387 10382 10376 10371 10366 10361 10356
10671 10668 10665 10661 10658 10654 10651 10647 10643 10640 10636 10633 10630 10627 10625 10623 10621 10619 10617 10615 10614 10612 10611 10610 10608 10606 10604 10602 10601 10599 10597 10595 10593 10590 10587 10585 10582 10579 10577 10574 10571 10568 10565 10563 10560 10557 10557 10554 10543 10534 10529 10525 10522 10519 10514 10509 10504 10500 10495 10490 10485 10480 10476 10471 10468 10464 10458 10454 10452 10444 10436 10431 10427 10422 10417 10410 10404 10400 10395 10389 10383 10376 10371 10365 10360 10354 10348 10343
10668 10665 10661 10658 10654 10651 10647 10643 10639 10635 10632 10629 10626 10623 10621 10619 10618 10616 10614 10612 10610 10609 10607 10606 10604 10602 10600 10598 10597 10595 10593 10591 10589 10586 10584 10581 10577 10574 10572 10569 10565 10563 10559 10556 10553 10549 10548 10549 10541 10529 10523 10519 10514 10511 10507 10501 10496 10491 10486 10481 10475 10470 10466 10461 10457 10453 10448 10445 10442 10436 10428 10421 10417 10411 10406 10401 10395 10390 10385 10379 10373 10367 10361 10355 10348 10342 10335 10330
10665 10662 10658 10655 10651 10647 10643 10639 10635 10632 10628 10626 10623 10621 10619 10617 10615 10613 10612 10610 10608 10606 10604 10602 10601 10599 10597 10594 10592 10590 10588 10586 10584 10581 10579 10576 10572 10569 10566 10563 10560 10556 10553 10549 10546 10542 10539 10540 10536 10525 10518 10513 10508 10504 10500 10495 10489 10483 10477 10472 10467 10462 10457 10452 10447 10441 10437 10435 10432 10428 10422 10414 10407 10400 10394 10390 10385 10379 10373 10367 10362 10356 10349 10343 10336 10330 10323 10318
10662 10659 10655 10652 10648 10644 10639 10635 10632 10629 10626 10623 10621 10619 10617 10615 10613 10611 10610 10608 10606 10604 10602 10600 10598 10596 10594 10591 10588 10586 10584 10582 10579 10576 10573 10570 10567 10564 10560 10557 10554 10550 10547 10543 10539 10536 10532 10529 10527 10519 10511 10505 10500 10497 10494 10489 10483 10477 10470 10464 10460 10455 10450 10445 10440 10432 10426 10423 10420 10415 10413 10407 10398 10390 10384 10379 10374 10367 10361 10355 10350 10343 10337 10331 10324 10317 10311 10305
10659 10656 10652 10648 10644 10640 10635 10632 10629 10626 10624 10621 10619 10617 10615 10613 10611 10609 10608 10606 10604 10602 10600 10597 10595 10593 10590 10588 10585 10582 10579 10577 10575 10571 10568 10565 10562 10559 10555 10551 10548 10544 10541 10537 10532 10529 10525 10521 10518 10513 10505 10498 10493 10490 10486 10481 10475 10469 10464 10458 10453 10448 10442 10437 10434 10426 10417 10412 10407 10401 10400 10398 10389 10380 10375 10368 10362 10355 10349 10343 10337 10330 10324 10318 10310 10303 10297 10291
10656 10652 10648 10645 10640 10636 10632 10628 10626 10624 10622 10619 10618 10616 10613 10612 10610 10608 10606 10603 10601 10599 10597 10595 10592 10590 10587 10584 10581 10578 10575 10572 10570 10567 10563 10560 10557 10554 10550 10546 10543 10538 10534 10531 10526 10521 10518 10515 10512 10506 10498 10492 10488 10485 10480 10474 10468 10462 10456 10451 10445 10439 10433 10427 10425 10420 10411 10403 10395 10388 10386 10385 10378 10371 10365 10357 10349 10343 10336 10329 10322 10316 10310 10304 10297 10290 10284 10277
10652 10649 10645 10641 10637 10633 10629 10626 10623 10621 10620 10618 10616 10614 10612 10610 10608 10605 10603 10601 10598 10596 10594 10591 10589 10586 10584 10580 10577 10574 10570 10567 10565 10562 10558 10555 10551 10548 10544 10540 10537 10533 10529 10526 10521 10516 10512 10510 10507 10502 10494 10486 10481 10477 10473 10467 10460 10453 10448 10442 10436 10430 10424 10418 10413 10408 10402 10394 10384 10376 10373 10369 10364 10358 10353 10346 10339 10331 10324 10316 10308 10302 10296 10289 10283 10277 10270 10263
10649 10645 10641 10637 10633 10630 10627 10624 10622 10620 10618 10616 10614 10612 10610 10607 10605 10603 10601 10598 10595 10593 10590 10587 10585 10582 10579 10577 10573 10570 10567 10563 10559 10557 10553 10550 10546 10543 10539 10536 10532 10529 10525 10521 10517 10511 10506 10502 10500 10497 10491 10484 10477 10471 10465 10460 10452 10445 10438 10433 10427 10421 10415 10409 10403 10396 10390 10383 10373 10364 10359 10355 10349 10345 10339 10332 10326 10319 10311 10303 10295 10288 10283 10275 10268 10261 10254 10246
10646 10642 10638 10634 10631 10628 10625 10623 10621 10619 10617 10615 10613 10610 10608 10605 10603 10600 10598 10595 10592 10589 10586 10583 10581 10578 10575 10572 10569 10566 10563 10559 10556 10552 10549 10546 10542 10538 10535 10531 10527 10524 10519 10515 10511 10505 10499 10493 10489 10485 10480 10477 10474 10467 10460 10455 10448 10439 10430 10423 10417 10412 10405 10398 10392 10385 10378 10371 10362 10351 10345 10340 10333 10329 10323 10315 10309 10302 10294 10286 10278 10271 10266 10259 10250 10242 10234 10227
10643 10639 10635 10632 10629 10626 10624 10622 10620 10618 10616 10613 10611 10608 10606 10603 10600 10597 10595 10592 10589 10586 10583 10580 10577 10574 10571 10568 10565 10562 10559 10556 10552 10548 10545 10542 10538 10534 10530 10526 10522 10518 10514 10509 10504 10499 10493 10486 10480 10474 10466 10463 10462 10456 10449 10445 10440 10432 10423 10414 10407 10402 10395 10388 10382 10375 10366 10359 10351 10340 10332 10327 10319 10312 10306 10299 10291 10283 10273 10266 10258 10250 10244 10237 10229 10221 10214 10208
10640 10636 10632 10629 10627 10624 10622 10620 10618 10616 10614 10611 10609 10606 10603 10600 10597 10594 10591 10589 10586 10582 10579 10577 10573 10570 10567 10564 10561 10557 10554 10552 10549 10545 10541 10537 10533 10528 10525 10521 10516 10511 10507 10502 10497 10493 10487 10480 10474 10467 10457 10452 10450 10445 10437 10432 10427 10422 10415 10407 10399 10393 10386 10379 10372 10364 10355 10348 10341 10331 10321 10314 10307 10299 10291 10284 10276 10267 10258 10250 10242 10235 10228 10221 10213 10206 10199 10192
10637 10633 10630 10628 10625 10623 10621 10619 10617 10614 10611 10609 10606 10603 10600 10597 10594 10591 10588 10586 10583 10580 10576 10574 10571 10568 10565 10561 10558 10555 10551 10547 10544 10540 10536 10533 10529 10523 10518 10514 10510 10505 10501 10496 10491 10486 10481 10475 10469 10463 10451 10442 10439 10434 10427 10421 10415 10410 10404 10398 10391 10384 10377 10370 10362 10353 10343 10335 10328 10320 10310 10301 10295 10287 10279 10271 10264 10255 10246 10238 10230 10223 10217 10209 10201 10194 10187 10180
10634 10631 10628 10626 10624 10622 10620 10617 10614 10612 10609 10606 10603 10600 10597 10594 10591 10589 10586 10583 10580 10577 10574 10571 10568 10566 10563 10560 10557 10554 10550 10546 10542 10538 10533 10529 10525 10520 10515 10509 10505 10500 10495 10491 10485 10480 10475 10469 10464 10459 10448 10436 10431 10425 10417 10411 10405 10398 10393 10387 10381 10374 10366 10358 10351 10341 10331 10323 10315 10308 10299 10289 10280 10273 10265 10257 10249 10241 10232 10224 10216 10208 10202 10194 10186 10180 10173 10165
10631 10629 10627 10625 10623 10620 10617 10615 10612 10609 10606 10603 10600 10597 10594 10592 10589 10586 10583 10580 10578 10575 10572 10569 10567 10564 10561 10558 10554 10551 10547 10544 10540 10536 10531 10526 10521 10517 10512 10506 10500 10495 10490 10485 10479 10473 10468 10462 10456 10452 10443 10431 10424 10417 10408 10401 10394 10387 10382 10376 10369 10363 10356 10347 10338 10329 10319 10310 10301 10292 10284 10275 10266 10257 10248 10240 10232 10224 10216 10207 10199 10191 10184 10177 10169 10163 10156 10149
10629 10627 10625 10623 10621 10618 10615 10612 10609 10607 10604 10601 10598 10595 10592 10590 10587 10584 10581 10578 10576 10573 10570 10567 10564 10560 10557 10554 10550 10547 10543 10539 10535 10531 10526 10522 10517 10511 10507 10501 10496 10490 10484 10478 10473 10466 10460 10454 10447 10443 10437 10426 10418 10412 10402 10393 10385 10376 10370 10364 10357 10350 10343 10333 10323 10314 10306 10297 10287 10278 10269 10261 10252 10242 10233 10223 10215 10208 10200 10192 10184 10177 10169 10160 10153 10147 10141 10134
10628 10626 10624 10621 10619 10616 10613 10610 10607 10604 10602 10599 10596 10593 10591 10588 10585 10582 10579 10576 10574 10571 10568 10564 10561 10557 10554 10550 10546 10543 10539 10535 10530 10525 10520 10515 10511 10505 10500 10494 10489 10483 10477 10470 10464 10458 10451 10445 10438 10434 10430 10421 10412 10406 10396 10386 10377 10368 10360 10352 10344 10337 10328 10319 10308 10298 10289 10280 10271 10263 10256 10247 10239 10230 10222 10213 10203 10194 10186 10177 10171 10165 10155 10145 10138 10131 10126 10119